TimeCST,TemperatureF,Dew PointF,Humidity,Sea Level PressureIn,VisibilityMPH,Wind Direction,Wind SpeedMPH,Gust SpeedMPH,PrecipitationIn,Events,Conditions,WindDirDegrees,DateUTC
12:00 AM,55.4,53.6,94,29.72,10.0,SSW,3.5,-,N/A,,Mostly Cloudy,210,2012-12-17 06:00:00
12:17 AM,55.4,53.6,94,29.72,10.0,South,3.5,-,N/A,,Scattered Clouds,180,2012-12-17 06:17:00
12:27 AM,55.4,53.6,94,29.72,10.0,SSW,3.5,-,N/A,,Mostly Cloudy,200,2012-12-17 06:27:00
12:36 AM,55.4,53.6,94,29.71,10.0,SSW,6.9,-,N/A,,Mostly Cloudy,200,2012-12-17 06:36:00
12:53 AM,55.9,54.0,93,29.71,10.0,SSW,4.6,-,N/A,,Mostly Cloudy,200,2012-12-17 06:53:00
1:03 AM,55.4,53.6,94,29.71,10.0,SSW,5.8,-,N/A,,Mostly Cloudy,210,2012-12-17 07:03:00
1:13 AM,55.4,53.6,94,29.71,10.0,SSW,3.5,-,N/A,,Mostly Cloudy,200,2012-12-17 07:13:00
1:44 AM,55.4,53.6,94,29.71,10.0,West,3.5,-,N/A,,Overcast,260,2012-12-17 07:44:00
1:53 AM,55.0,53.1,93,29.70,10.0,Calm,Calm,-,N/A,,Overcast,0,2012-12-17 07:53:00
2:00 AM,55.4,53.6,94,29.71,10.0,Calm,Calm,-,N/A,,Overcast,0,2012-12-17 08:00:00
2:53 AM,55.9,54.0,93,29.69,10.0,SSW,3.5,-,N/A,,Overcast,210,2012-12-17 08:53:00
3:06 AM,55.4,53.6,94,29.69,10.0,South,3.5,-,N/A,,Overcast,180,2012-12-17 09:06:00
3:53 AM,55.0,53.1,93,29.69,10.0,South,3.5,-,N/A,,Mostly Cloudy,180,2012-12-17 09:53:00
4:25 AM,55.4,53.6,94,29.68,9.0,SSW,4.6,-,N/A,,Mostly Cloudy,200,2012-12-17 10:25:00
4:32 AM,55.4,53.6,94,29.67,9.0,Calm,Calm,-,N/A,,Scattered Clouds,0,2012-12-17 10:32:00
4:53 AM,55.0,53.1,93,29.66,9.0,South,3.5,-,N/A,,Scattered Clouds,180,2012-12-17 10:53:00
5:02 AM,55.4,53.6,94,29.66,9.0,South,3.5,-,N/A,,Mostly Cloudy,190,2012-12-17 11:02:00
5:16 AM,53.6,53.6,100,29.66,8.0,South,3.5,-,N/A,,Mostly Cloudy,170,2012-12-17 11:16:00
5:24 AM,55.4,53.6,94,29.66,8.0,South,3.5,-,N/A,,Mostly Cloudy,170,2012-12-17 11:24:00
5:43 AM,55.4,53.6,94,29.66,8.0,South,4.6,-,N/A,,Overcast,170,2012-12-17 11:43:00
5:53 AM,55.0,53.1,93,29.65,8.0,South,3.5,-,N/A,,Overcast,180,2012-12-17 11:53:00
6:13 AM,55.4,53.6,94,29.65,8.0,SSW,3.5,-,N/A,,Overcast,200,2012-12-17 12:13:00
6:53 AM,55.0,53.1,93,29.65,9.0,South,3.5,-,N/A,,Mostly Cloudy,190,2012-12-17 12:53:00
7:20 AM,55.4,53.6,94,29.64,9.0,SSW,4.6,-,N/A,,Overcast,210,2012-12-17 13:20:00
7:22 AM,55.4,53.6,94,29.64,8.0,SSW,4.6,-,N/A,,Overcast,200,2012-12-17 13:22:00
7:29 AM,55.4,53.6,94,29.64,8.0,South,4.6,-,N/A,,Mostly Cloudy,190,2012-12-17 13:29:00
7:35 AM,55.4,51.8,88,29.64,8.0,South,3.5,-,N/A,,Scattered Clouds,170,2012-12-17 13:35:00
7:51 AM,53.6,51.8,94,29.64,6.0,Calm,Calm,-,N/A,,Mostly Cloudy,0,2012-12-17 13:51:00
7:53 AM,54.0,52.0,93,29.64,6.0,Calm,Calm,-,N/A,,Mostly Cloudy,0,2012-12-17 13:53:00
8:02 AM,55.4,53.6,94,29.64,7.0,SW,3.5,-,N/A,,Mostly Cloudy,220,2012-12-17 14:02:00
8:53 AM,55.9,53.1,90,29.65,8.0,SW,10.4,-,N/A,,Overcast,230,2012-12-17 14:53:00
9:05 AM,55.4,53.6,94,29.65,8.0,SW,10.4,-,N/A,,Mostly Cloudy,230,2012-12-17 15:05:00
9:53 AM,57.0,52.0,83,29.65,10.0,SW,11.5,20.7,N/A,,Mostly Cloudy,230,2012-12-17 15:53:00
10:39 AM,57.2,50.0,77,29.66,10.0,West,12.7,-,N/A,,Mostly Cloudy,260,2012-12-17 16:39:00
10:53 AM,55.9,50.0,80,29.65,9.0,West,15.0,25.3,N/A,,Overcast,260,2012-12-17 16:53:00
11:05 AM,55.4,50.0,82,29.65,9.0,WSW,12.7,20.7,N/A,,Mostly Cloudy,250,2012-12-17 17:05:00
11:53 AM,55.0,48.9,80,29.63,9.0,WSW,13.8,-,N/A,,Mostly Cloudy,250,2012-12-17 17:53:00
12:53 PM,55.9,48.0,75,29.60,10.0,West,10.4,-,N/A,,Clear,270,2012-12-17 18:53:00
1:53 PM,57.0,46.9,69,29.60,10.0,West,13.8,-,N/A,,Clear,280,2012-12-17 19:53:00
2:22 PM,53.6,46.4,77,29.61,10.0,West,13.8,20.7,N/A,,Mostly Cloudy,280,2012-12-17 20:22:00
2:53 PM,52.0,44.1,74,29.62,10.0,WNW,15.0,21.9,N/A,,Overcast,290,2012-12-17 20:53:00
3:41 PM,46.4,42.8,87,29.65,8.0,WNW,11.5,21.9,N/A,,Overcast,300,2012-12-17 21:41:00
3:53 PM,46.9,42.1,83,29.66,8.0,NW,12.7,-,N/A,,Overcast,310,2012-12-17 21:53:00
6:21 PM,44.6,41.0,87,29.73,6.0,WNW,8.1,-,N/A,,Overcast,290,2012-12-18 00:21:00
6:30 PM,44.6,41.0,87,29.73,9.0,WNW,6.9,-,N/A,,Overcast,290,2012-12-18 00:30:00
6:53 PM,44.1,41.0,89,29.74,10.0,WNW,8.1,-,N/A,,Overcast,300,2012-12-18 00:53:00
7:14 PM,44.6,41.0,87,29.74,10.0,WNW,6.9,-,N/A,,Overcast,300,2012-12-18 01:14:00
7:33 PM,44.6,39.2,81,29.74,10.0,NW,8.1,-,N/A,,Overcast,310,2012-12-18 01:33:00
7:53 PM,44.1,39.9,85,29.75,10.0,NNW,9.2,-,N/A,,Overcast,330,2012-12-18 01:53:00
8:09 PM,42.8,39.2,87,29.76,10.0,WNW,9.2,-,N/A,,Overcast,300,2012-12-18 02:09:00
8:53 PM,43.0,39.9,89,29.78,10.0,NW,8.1,-,N/A,,Overcast,310,2012-12-18 02:53:00
9:53 PM,43.0,39.0,86,29.79,10.0,NW,5.8,-,N/A,,Overcast,320,2012-12-18 03:53:00
10:53 PM,43.0,37.9,82,29.81,10.0,WNW,5.8,-,N/A,,Overcast,300,2012-12-18 04:53:00
11:53 PM,43.0,37.0,80,29.82,10.0,WNW,6.9,-,N/A,,Overcast,300,2012-12-18 05:53:00